Tracking 32420 objects as of 8-Dec-2025
HD Live streaming from Space Station
objects crossing your sky now

TUSUR GO

Track TUSUR GO now!
10-day predictions


NORAD ID: 61782
Int'l Code: 2024-199AZ
Perigee: 412.9 km
Apogee: 422.1 km
Inclination: 97.3 °
Period: 92.8 minutes
Semi major axis: 6788 km
RCS: Unknown
Launch date: November 4, 2024
Source: Commonwealth of Independent States (former USSR) (CIS)
Launch site: VOSTOCHNY COSMODROME (VOSTO)
Your satellite tracking list
Your tracking list is empty




NASA's NSSDC Master Catalog

Two Line Element Set (TLE):
1 61782U 24199AZ  25341.91247119  .00072450  00000-0  11882-2 0  9998
2 61782  97.3180 211.9740 0006743 258.0887 101.9610 15.52179532104919
Source of the keplerian elements: AFSPC